Fort Lawn, SC

7:44 PM EDT on September 28, 2016 (GMT -0400)
Lancaster County-McWhirter

Weather History for KLKR - April, 2013

Change the Weather History Date:

Monday, April 8, 2013

  Actual Average (KUZA) Record (KUZA)
Temperature  
Mean Temperature 63 °F -  
Max Temperature 78 °F 71 °F 88 °F (1954)
Min Temperature 48 °F 46 °F 21 °F (2007)
Degree Days  
Heating Degree Days 2    
Growing Degree Days 13 (Base 50)    
Moisture  
Dew Point 53 °F    
Average Humidity 75    
Maximum Humidity 100    
Minimum Humidity 34    
Precipitation  
Precipitation 0.00 in - - ()
Sea Level Pressure  
Sea Level Pressure 30.14 in    
Wind  
Wind Speed 3 mph (SSW)    
Max Wind Speed 10 mph    
Max Gust Speed -    
Visibility 9 miles    
Events      
Averages and records for this station are not official NWS values.
T = Trace of Precipitation, MM = Missing Value Source: NWS Daily Summary

Daily Weather History Graph

Daily Weather History Graph

Search for Another Location

Airport or City:

Trip Planner

Search our weather history database for the weather conditions in past years. The results will help you decide how hot, cold, wet, or windy it might be!

Date:

Astronomy

Apr. 08, 2013 Rise Set
Actual Time 7:00 AM EDT 7:50 PM EDT
Civil Twilight 6:34 AM EDT 8:15 PM EDT
Nautical Twilight 6:04 AM EDT 8:46 PM EDT
Astronomical Twilight 5:33 AM EDT 9:17 PM EDT
Moon 5:46 AM EDT (4/8) 6:25 PM EDT (4/8)
Length of Visible Light 13h 41m
Length of Day
12h 49m
Waning Crescent, 3% of the Moon is Illuminated
Apr 8
Waning Crescent
Apr 10
New
Apr 18
First Quarter
Apr 25
Full
May 2
Last Quarter

Hourly Weather History & Observations

Time (EDT) Temp. Dew Point Humidity Pressure Visibility Wind Dir Wind Speed Gust Speed Precip Events Conditions
12:15 AM 59.0 °F 55.4 °F 88% 30.14 in 10.0 mi SSE 3.5 mph - N/A   Clear
12:35 AM 59.0 °F 55.4 °F 88% 30.14 in 10.0 mi SSE 4.6 mph - N/A   Partly Cloudy
12:55 AM 59.0 °F 55.4 °F 88% 30.13 in 10.0 mi SSE 3.5 mph - N/A   Partly Cloudy
1:15 AM 57.2 °F 57.2 °F 100% 30.13 in 10.0 mi SSE 3.5 mph - N/A   Clear
1:35 AM 59.0 °F 55.4 °F 88% 30.13 in 10.0 mi Calm Calm - N/A   Clear
1:55 AM 57.2 °F 57.2 °F 100% 30.13 in 10.0 mi SSE 3.5 mph - N/A   Clear
2:15 AM 57.2 °F 57.2 °F 100% 30.13 in 10.0 mi Calm Calm - N/A   Clear
2:35 AM 55.4 °F 55.4 °F 100% 30.14 in 10.0 mi Calm Calm - N/A   Clear
2:55 AM 55.4 °F 55.4 °F 100% 30.14 in 10.0 mi Calm Calm - N/A   Partly Cloudy
3:15 AM 55.4 °F 55.4 °F 100% 30.13 in 10.0 mi Calm Calm - N/A   Scattered Clouds
3:35 AM 53.6 °F 53.6 °F 100% 30.13 in 10.0 mi Calm Calm - N/A   Partly Cloudy
3:55 AM 53.6 °F 53.6 °F 100% 30.12 in 9.0 mi Calm Calm - N/A   Clear
4:15 AM 53.6 °F 53.6 °F 100% 30.12 in 5.0 mi Calm Calm - N/A   Clear
4:35 AM 51.8 °F 51.8 °F 100% 30.12 in 3.0 mi Calm Calm - N/A   Clear
4:55 AM 51.8 °F 51.8 °F 100% 30.13 in 4.0 mi Calm Calm - N/A   Clear
5:15 AM 50.0 °F 50.0 °F 100% 30.13 in 5.0 mi Calm Calm - N/A   Clear
5:35 AM 51.8 °F 51.8 °F 100% 30.13 in 2.5 mi Calm Calm - N/A   Clear
5:55 AM 50.0 °F 50.0 °F 100% 30.13 in 3.0 mi Calm Calm - N/A   Clear
6:15 AM 50.0 °F 50.0 °F 100% 30.14 in 2.5 mi Calm Calm - N/A   Clear
6:35 AM 48.2 °F 48.2 °F 100% 30.15 in 4.0 mi Calm Calm - N/A   Clear
6:55 AM 48.2 °F 48.2 °F 100% 30.16 in 3.0 mi Calm Calm - N/A   Clear
7:15 AM 48.2 °F 48.2 °F 100% 30.17 in 1.2 mi Calm Calm - N/A   Clear
7:35 AM 48.2 °F 48.2 °F 100% 30.18 in 2.0 mi Calm Calm - N/A   Clear
7:55 AM 48.2 °F 48.2 °F 100% 30.18 in 3.0 mi Calm Calm - N/A   Clear
8:15 AM 50.0 °F 50.0 °F 100% 30.19 in 5.0 mi Calm Calm - N/A   Clear
8:35 AM 55.4 °F 55.4 °F 100% 30.20 in 5.0 mi Calm Calm - N/A   Clear
8:55 AM 57.2 °F 57.2 °F 100% 30.19 in 10.0 mi Calm Calm - N/A   Partly Cloudy
9:15 AM 60.8 °F 59.0 °F 94% 30.20 in 10.0 mi WSW 3.5 mph - N/A   Scattered Clouds
9:35 AM 60.8 °F 57.2 °F 88% 30.20 in 10.0 mi Calm Calm - N/A   Partly Cloudy
9:55 AM 62.6 °F 57.2 °F 82% 30.20 in 10.0 mi SW 3.5 mph - N/A   Scattered Clouds
10:15 AM 64.4 °F 55.4 °F 73% 30.20 in 10.0 mi SSW 6.9 mph - N/A   Mostly Cloudy
10:35 AM 66.2 °F 55.4 °F 68% 30.20 in 10.0 mi SW 8.1 mph - N/A   Scattered Clouds
10:55 AM 66.2 °F 55.4 °F 68% 30.20 in 10.0 mi SW 6.9 mph - N/A   Scattered Clouds
11:15 AM 68.0 °F 55.4 °F 64% 30.19 in 10.0 mi SSW 4.6 mph - N/A   Partly Cloudy
11:35 AM 71.6 °F 55.4 °F 57% 30.19 in 10.0 mi SW 6.9 mph - N/A   Clear
11:55 AM 71.6 °F 55.4 °F 57% 30.19 in 10.0 mi SW 5.8 mph - N/A   Clear
12:15 PM 71.6 °F 55.4 °F 57% 30.19 in 10.0 mi SW 8.1 mph - N/A   Clear
12:35 PM 73.4 °F 53.6 °F 50% 30.18 in 10.0 mi SSW 3.5 mph - N/A   Clear
12:55 PM 73.4 °F 55.4 °F 53% 30.17 in 10.0 mi SSW 6.9 mph - N/A   Clear
1:15 PM 75.2 °F 53.6 °F 47% 30.16 in 10.0 mi South 8.1 mph - N/A   Clear
1:35 PM 75.2 °F 55.4 °F 50% 30.15 in 10.0 mi SW 6.9 mph - N/A   Clear
1:55 PM 75.2 °F 53.6 °F 47% 30.14 in 10.0 mi SSW 3.5 mph - N/A   Partly Cloudy
2:15 PM 75.2 °F 53.6 °F 47% 30.13 in 10.0 mi SSW 5.8 mph - N/A   Partly Cloudy
2:35 PM 77.0 °F 51.8 °F 41% 30.13 in 10.0 mi SW 10.4 mph - N/A   Partly Cloudy
2:55 PM 77.0 °F 51.8 °F 41% 30.12 in 10.0 mi South 4.6 mph - N/A   Partly Cloudy
3:15 PM 75.2 °F 53.6 °F 47% 30.11 in 10.0 mi South 3.5 mph - N/A   Partly Cloudy
3:35 PM 77.0 °F 50.0 °F 39% 30.10 in 10.0 mi SW 9.2 mph - N/A   Partly Cloudy
3:55 PM 78.8 °F 48.2 °F 34% 30.10 in 10.0 mi South 5.8 mph - N/A   Partly Cloudy
4:15 PM 77.0 °F 48.2 °F 36% 30.09 in 10.0 mi SSW 5.8 mph - N/A   Partly Cloudy
4:35 PM 77.0 °F 48.2 °F 36% 30.09 in 10.0 mi SW 5.8 mph - N/A   Partly Cloudy
4:55 PM 77.0 °F 50.0 °F 39% 30.08 in 10.0 mi SW 5.8 mph - N/A   Scattered Clouds
5:15 PM 78.8 °F 48.2 °F 34% 30.08 in 10.0 mi South 5.8 mph - N/A   Scattered Clouds
5:35 PM 77.0 °F 50.0 °F 39% 30.08 in 10.0 mi SW 9.2 mph - N/A   Partly Cloudy
5:55 PM 77.0 °F 48.2 °F 36% 30.09 in 10.0 mi SW 8.1 mph - N/A   Partly Cloudy
6:15 PM 77.0 °F 48.2 °F 36% 30.09 in 10.0 mi SW 4.6 mph - N/A   Partly Cloudy
6:35 PM 75.2 °F 48.2 °F 38% 30.08 in 10.0 mi SSW 4.6 mph - N/A   Clear
6:55 PM 75.2 °F 50.0 °F 41% 30.09 in 10.0 mi Calm Calm - N/A   Clear
7:15 PM 75.2 °F 50.0 °F 41% 30.09 in 10.0 mi SSW 3.5 mph - N/A   Clear
7:35 PM 71.6 °F 51.8 °F 50% 30.09 in 10.0 mi Calm Calm - N/A   Clear
7:55 PM 68.0 °F 55.4 °F 64% 30.10 in 10.0 mi Calm Calm - N/A   Clear
8:15 PM 64.4 °F 55.4 °F 73% 30.10 in 10.0 mi Calm Calm - N/A   Clear
8:35 PM 62.6 °F 57.2 °F 82% 30.10 in 10.0 mi Calm Calm - N/A   Clear
8:55 PM 60.8 °F 55.4 °F 82% 30.11 in 10.0 mi Calm Calm - N/A   Clear
9:15 PM 59.0 °F 57.2 °F 94% 30.11 in 10.0 mi Calm Calm - N/A   Clear
9:35 PM 59.0 °F 55.4 °F 88% 30.12 in 10.0 mi Calm Calm - N/A   Clear
9:55 PM 57.2 °F 55.4 °F 94% 30.12 in 10.0 mi Calm Calm - N/A   Clear
10:15 PM 57.2 °F 55.4 °F 94% 30.13 in 10.0 mi Calm Calm - N/A   Clear
10:35 PM 57.2 °F 55.4 °F 94% 30.13 in 10.0 mi Calm Calm - N/A   Clear
10:55 PM 55.4 °F 55.4 °F 100% 30.14 in 10.0 mi Calm Calm - N/A   Clear
11:15 PM 55.4 °F 55.4 °F 100% 30.14 in 10.0 mi SSE 3.5 mph - N/A   Clear
11:35 PM 57.2 °F 55.4 °F 94% 30.14 in 10.0 mi SSE 3.5 mph - N/A   Clear
11:55 PM 62.6 °F 55.4 °F 77% 30.14 in 10.0 mi SSE 3.5 mph - N/A   Clear